Torna al catalogo

FENGYUN 1C DEB

AttivoPO
NORAD 30160·DEBRIS·🇨🇳 China

Lanciato May 10, 1999 da Taiyuan Satellite Launch Center

Loading…

Prossimi Passaggi (prossime 24 ore)

TLE

AggiornatoSource: Space-Track

Epoca: Sep 14, 2026, 06:14 UTC

1 30160U 99025TR  26257.26027130  .00000427  00000-0  57051-3 0  9992
2 30160  98.8964 179.0999 0341081 152.9444   0.2800 13.43260177961129

Traccia FENGYUN 1C DEB in tempo reale con AllMySat

Download on the App Store